Flag for Switzerland Weather past 2 weeks in Kloten, Zurich, Switzerland

Now
54 °F

Sunny.


Feels Like: 54 °F
Forecast: 37 / 70 °F
Wind: 2 mph from Southwest

Location: Zurich-Kloten

Current Time: Apr 21, 2015 at 9:54:20 PM

Latest Report: Apr 21, 2015 at 9:20 PM


Visibility: 10 mi

Pressure: 30.33 "Hg

Humidity: 51%

Dew point: 36 °F

Location of KlotenLocation

Historic Weather in Kloten — Graph

°F

Kloten temperature yesterday

Maximum temperature yesterday: 64 °F (at 2:50 PM)
Minimum temperature yesterday: 34 °F (at 5:50 AM)
Average temperature yesterday: 52 °F

Past Weeks' High & Low Weather Summary

 TemperatureHumidityPressure
High73 °F (Apr 15, 2:50 PM)100% (Apr 10, 6:50 AM)30.57 "Hg (Apr 10, 6:50 AM)
Low25 °F (Apr 7, 5:50 AM)19% (Apr 15, 4:20 PM)29.95 "Hg (Apr 16, 5:20 PM)
Average52 °F59%30.26 "Hg
* Reported Apr 6 8:20 PM — Apr 21 8:20 PM, Kloten, Weather by CustomWeather, © 2015

Note: Actual official high and low records may vary slightly from our data, if they occured in-between our weather recording intervals... More about our weather records

Advertising

Kloten weather history for previous 24 hours

 ConditionsComfort  
Time TempWeatherWind HumidityBarometerVisibility
8:20 PM
Tue, Apr 21
64 °FSunny.5 mph30%30.33 "Hg10 mi
7:50 PM66 °FPassing clouds.6 mph28%30.30 "HgN/A
7:20 PM68 °FSunny.8 mph26%30.30 "Hg10 mi
6:50 PM68 °FSunny.8 mph26%30.30 "Hg10 mi
6:20 PM68 °FSunny.9 mph26%30.30 "Hg10 mi
5:50 PM68 °FPassing clouds.9 mph26%30.33 "HgN/A
5:20 PM68 °FPassing clouds.9 mph28%30.33 "HgN/A
4:50 PM68 °FPassing clouds.9 mph28%30.33 "HgN/A
4:20 PM68 °FPassing clouds.10 mph28%30.33 "HgN/A
3:50 PM68 °FPassing clouds.13 mph28%30.33 "HgN/A
3:20 PM68 °FPassing clouds.10 mph28%30.33 "HgN/A
2:50 PM66 °FPassing clouds.13 mph30%30.33 "HgN/A
2:20 PM66 °FPassing clouds.12 mph30%30.36 "HgN/A
1:50 PM64 °FPassing clouds.12 mph32%30.36 "HgN/A
1:20 PM64 °FPassing clouds.10 mph32%30.36 "HgN/A
12:50 PM64 °FPassing clouds.7 mph37%30.36 "HgN/A
12:20 PM63 °FPassing clouds.8 mph42%30.36 "HgN/A
11:50 AM61 °FPassing clouds.10 mph42%30.36 "HgN/A
11:20 AM59 °FPassing clouds.9 mph45%30.36 "HgN/A
10:50 AM59 °FPassing clouds.10 mph48%30.36 "HgN/A
10:20 AM57 °FPassing clouds.7 mph51%30.36 "HgN/A
9:50 AM55 °FPassing clouds.9 mph51%30.36 "HgN/A
9:20 AM54 °FSunny.3 mph54%30.36 "Hg10 mi
8:50 AM52 °FSunny.2 mph58%30.36 "Hg10 mi
8:20 AM48 °FPassing clouds.6 mph62%30.36 "HgN/A
7:50 AM46 °FSunny.6 mph71%30.33 "Hg10 mi
7:20 AM43 °FClear.7 mph76%30.33 "Hg10 mi
6:50 AM41 °FClear.7 mph76%30.33 "Hg10 mi
6:20 AM43 °FClear.8 mph71%30.30 "Hg10 mi
5:20 AM45 °FClear.8 mph71%30.30 "Hg10 mi
4:50 AM41 °FPassing clouds.3 mph76%30.30 "HgN/A
4:20 AM41 °FClear.2 mph76%30.30 "Hg10 mi
3:50 AM41 °FClear.2 mph76%30.30 "Hg10 mi
3:20 AM39 °FClear.1 mph87%30.30 "Hg10 mi
2:50 AM43 °FClear.No wind76%30.30 "Hg10 mi
1:50 AM45 °FClear.3 mph71%30.30 "Hg10 mi
1:20 AM43 °FClear.1 mph76%30.30 "Hg10 mi
12:50 AM43 °FClear.5 mph76%30.30 "Hg10 mi
12:20 AM45 °FClear.3 mph71%30.30 "Hg10 mi
11:50 PM
Mon, Apr 20
48 °FClear.5 mph62%30.30 "Hg10 mi
11:20 PM50 °FClear.6 mph54%30.30 "Hg10 mi
10:50 PM50 °FClear.7 mph54%30.27 "Hg10 mi
10:20 PM50 °FClear.6 mph58%30.27 "Hg10 mi
9:50 PM52 °FClear.5 mph54%30.27 "Hg10 mi
9:20 PM54 °FPassing clouds.5 mph51%30.24 "HgN/A
Weather by CustomWeather, © 2015

See weather overviewHow to use our weather pages